{"data":{"norad_id":60019,"intl_designator":"2024-111D","name":"STARLINK-31986","alt_names":[],"object_type":"PAYLOAD","status":"ACTIVE","operator":null,"country":"US","launch_date":"2024-06-08","launch_site_code":"AFETR","launch_vehicle":null,"mission":null,"orbit_class":"UNKNOWN","rcs_meters":null,"size_class":null,"mass_kg":null,"dimensions":null,"purposes":["comms"],"wikipedia_slug":null,"has_3d_model":false,"image_url":null,"decayed_at":null,"tle_current":{"epoch":"2026-09-21T15:59:21.829632Z","epoch_age_seconds":76880,"freshness":"FRESH","line1":"1 60019U 24111D   26264.66622488  .00000090  00000+0  13801-4 0  9992","line2":"2 60019  53.1592 244.2528 0001399  90.0232 270.0931 15.34384366129061","mean_motion":15.34384366,"eccentricity":0.0001399,"inclination_deg":53.1592,"raan_deg":244.2528,"arg_perigee_deg":90.0232,"mean_anomaly_deg":270.0931,"bstar":1.3801e-5,"rev_number":12906,"period_min":93.848714305787,"perigee_km":461.7926680939,"apogee_km":463.70674819484,"semimajor_km":6840.8867081444,"source":"CELESTRAK","updated_at":"2026-09-22T09:00:49.137804Z"}}}